Regional Weather Roundup
Issued by NWS

Home | Current Version | Previous Version | Text Only | Print | Product List | Glossary Off
Versions: 1 2 3 4 5 6 7 8 9 10 11 12 13 14 15 16 17 18 19 20 21 22 23 24 25 26 27 28 29 30 31 32 33 34 35 36 37 38 39 40 41 42 43 44 45 46 47 48 49 50

000
ASUS45 KBOI 252110
RWRID
WEATHER ROUNDUP FOR IDAHO
NATIONAL WEATHER SERVICE BOISE ID
300 PM MDT SAT APR 25 2015

NOTE: "FAIR" INDICATES FEW OR NO CLOUDS BELOW 12000 FEET
WITH NO SIGNIFICANT WEATHER AND/OR OBSTRUCTIONS TO VISIBILITY

IDZ012-014-252200-
SOUTHWEST IDAHO


CITY           SKY/WX    TMP DP  RH WIND       PRES   REMARKS
BOISE          PTSUNNY   58  26  29 NW13      29.77F
CALDWELL       PTSUNNY   61  30  31 NW8       29.80S
MOUNTAIN HOME  CLOUDY    56  24  29 NW8G18    29.76F
$$

IDZ016-017-252200-
SOUTHCENTRAL IDAHO


CITY           SKY/WX    TMP DP  RH WIND       PRES   REMARKS
BURLEY         LGT RAIN  48  36  63 S5        29.74S
JEROME         CLOUDY    51  27  39 NW12      29.76F
TWIN FALLS     CLOUDY    49  33  54 W5        29.77S
$$

IDZ019>023-252200-
SOUTHEAST IDAHO


CITY           SKY/WX    TMP DP  RH WIND       PRES   REMARKS
IDAHO FALLS    PTSUNNY   53  23  31 S5        29.76F
POCATELLO      PTSUNNY   57  28  33 MISG      29.75F
REXBURG        CLOUDY    49  28  44 VRB6      29.77F
$$

IDZ006-010-011-018-031-032-252200-
CENTRAL IDAHO MOUNTAINS


CITY           SKY/WX    TMP DP  RH WIND       PRES   REMARKS
MCCALL         CLOUDY    42  24  49 SW3       29.78R
HAILEY         CLOUDY    48  30  49 S10       29.78R
STANLEY          N/A     43  25  49 VRB3      29.75F
SALMON         PTSUNNY   52  23  32 N7        29.74S
CHALLIS        LGT RAIN  45  32  60 W15       29.75R
$$

IDZ002-004-006-007-026-252200-
NORTHERN IDAHO


CITY           SKY/WX    TMP DP  RH WIND       PRES   REMARKS
LEWISTON       CLOUDY    50  36  58 NW8       29.88R
LOWELL           N/A     53  35  50 S8        29.85R
COEUR D`ALENE  CLOUDY    45  37  76 W6        29.90R
MULLAN PASS    SNOW      30  29  96 CALM      29.82R VSB 1/4
$$



USA.gov is the U.S. government's official web portal to all federal, state and local government web resources and services.